Tracking 33407 objects as of 5-Mar-2026
HD Live streaming from Space Station
objects crossing your sky now

GORIZONT 31

Track GORIZONT 31 now!
GORIZONT 31 is classified as:


NORAD ID: 23775
Int'l Code: 1996-005A
Perigee: 35,809.4 km
Apogee: 35,994.6 km
Inclination: 14.4 °
Period: 1,441.6 minutes
Semi major axis: 42272 km
RCS: 12.5892 m2 (large)
Launch date: January 25, 1996
Source: Commonwealth of Independent States (former USSR) (CIS)
Launch site: TYURATAM MISSILE AND SPACE COMPLEX (TTMTR)

Telecommunications; telephone and television communications to the Russian republic.
Your satellite tracking list
Your tracking list is empty




NASA's NSSDC Master Catalog

Two Line Element Set (TLE):
1 23775U 96005A   26063.18016923 -.00000232  00000-0  00000-0 0  9999
2 23775  14.4138 355.3801 0021902 245.8866 269.3807  0.99886866110002
Source of the keplerian elements: AFSPC